Location: Afling
(47.2500°N, 11.3000°E)
Time: 01:56:38
(UTC+00:00)

Daily predictions for brighter satellites

Satellite Brightness Start Highest point End
(mag) Time Altitude Azimuth Time Altitude Azimuth Time Altitude Azimuth
ADEOS II 4.4 00:01:20 10° NE 00:04:17 15° E 00:07:12 10° ESE
NOSS 2-2 (D) 4.2 00:01:52 10° NW 00:06:57 76° SW 00:11:38 22° SSE
Cosmos 1461 3.9 00:03:20 10° NW 00:06:31 32° W 00:06:31 32° W
Cosmos 1867 3.9 00:05:01 30° WSW 00:07:39 63° NW 00:13:07 10° NNE
Cosmos 1674 Rocket 3.8 00:06:55 46° WSW 00:07:47 55° WNW 00:12:03 10° N
Cosmos 2221 Rocket 4.4 00:06:47 33° WSW 00:07:49 39° WNW 00:11:58 10° N
Cosmos 2298 Rocket 4.0 00:07:41 43° SSW 00:09:28 89° WNW 00:14:49 10° NNE
Cosmos 1674 3.9 00:10:51 28° W 00:11:19 28° WNW 00:14:37 10° NNW
USA 306 2.8 00:11:52 58° SSE 00:12:11 61° SE 00:16:18 10° ENE
Cosmos 1238 Rocket 4.0 00:10:22 10° NW 00:12:06 22° WNW 00:12:06 22° WNW
Thor Agena Rocket 3.9 00:08:18 10° NNE 00:13:31 58° ESE 00:15:34 35° SSE
ATLAS CENTAUR R/B 3.6 00:11:57 10° WNW 00:13:59 15° W 00:13:59 15° W
USA 307 2.9 00:15:21 55° SSE 00:15:38 56° SE 00:19:44 10° ENE
SL-16 R/B 3.6 00:16:08 20° SE 00:18:37 27° ESE 00:23:19 10° NE
ERBS 3.0 00:22:52 38° E 00:22:52 38° E 00:25:07 10° ENE
Cosmos 1980 3.6 00:20:38 38° SSW 00:22:53 86° ESE 00:28:35 10° NNE
Cosmos 1378 Rocket 4.3 00:22:19 34° WSW 00:23:26 41° WNW 00:27:39 10° N
ATLAS 5 CENTAUR R/B 2.9 00:12:42 10° NW 00:23:26 48° WSW 00:24:39 39° SSW
Cosmos 2333 Rocket 3.8 00:19:42 12° WSW 00:24:02 27° NW 00:28:49 10° N
CZ-4C R/B 3.4 00:17:14 10° NW 00:24:12 44° WSW 00:27:53 29° SSW
Cosmos 1455 Rocket 3.4 00:19:48 10° N 00:24:14 61° ENE 00:26:09 32° SSE
USA 215 4.2 00:19:27 10° NE 00:25:40 47° NNW 00:31:52 10° W
Cosmos 332 Rocket 3.8 00:28:23 41° S 00:29:57 69° ESE 00:34:44 10° NNE
NOSS 0 Rocket 4.1 00:29:23 30° SW 00:32:34 70° WNW 00:38:50 10° NNE
USA 32 4.1 00:35:15 37° SSW 00:37:17 67° W 00:42:33 10° N
Meteor 1-24 Rocket 4.2 00:34:52 25° SSE 00:37:55 52° E 00:43:13 10° NNE
Meteor 2-10 Rocket 3.6 00:32:59 10° NNW 00:38:41 75° W 00:41:17 32° S
Cosmos 1975 Rocket 3.1 00:39:39 40° S 00:41:12 81° E 00:45:40 10° N
Cosmos 839 Rocket 4.4 00:38:16 10° NW 00:44:29 53° WSW 00:49:11 22° S
USA 308 2.7 00:44:46 40° SW 00:46:12 88° SE 00:50:25 10° ENE
Cosmos 2219 Rocket 4.0 00:42:57 10° W 00:47:23 24° NW 00:51:50 10° N
MOS 1 Rocket 4.2 00:44:05 13° SE 00:47:37 41° ENE 00:51:40 10° N
Cosmos 1025 Rocket 3.0 00:47:03 38° S 00:48:40 78° E 00:52:59 10° NNE
Cosmos 1455 3.2 00:46:48 10° N 00:50:20 40° ENE 00:52:37 19° SE
Cosmos 1269 Rocket 4.0 00:45:54 10° NNW 00:51:14 87° ENE 00:55:07 19° SSE
GP-B 3.6 00:52:22 10° N 00:56:38 46° W 00:58:07 33° SW
Meteor 2-5 Rocket 3.7 00:55:38 28° S 00:58:48 88° E 01:04:30 10° NNE
CZ-2D R/B 2.2 00:54:04 10° NNE 00:59:29 75° ESE 01:02:28 27° S
Lacrosse 5 2.2 00:58:31 32° SSW 01:00:37 53° SE 01:05:35 10° ENE
Cosmos 1300 3.8 00:57:48 10° NNW 01:01:03 28° W 01:01:27 27° WSW
USA 267 4.3 01:02:14 22° SW 01:02:29 22° SW 01:07:23 10° WNW
USA 305 3.2 01:07:08 22° W 01:09:44 61° NNW 01:13:53 10° NE
Cosmos 1544 Rocket 3.5 01:06:10 10° N 01:10:36 86° W 01:13:10 25° S
BREEZE-M DEB (TANK) 4.3 00:58:10 10° WSW 01:13:00 84° NNW 01:17:02 10° ENE
Cosmos 2237 Rocket 2.9 01:11:28 21° WSW 01:15:00 44° NW 01:20:29 10° NNE
AQUA 3.9 01:14:02 10° NNE 01:18:49 74° ESE 01:21:49 23° S
SL-16 R/B 2.5 01:14:42 16° S 01:19:48 74° WSW 01:26:05 10° NNW
Helios 1A 3.5 01:16:52 11° SSE 01:20:55 61° ENE 01:25:06 10° N
SAR-Lupe-2 3.6 01:18:50 10° NNE 01:22:26 75° ESE 01:24:09 29° S
Lacrosse 5 rocket 1.7 01:21:54 30° S 01:23:25 46° SE 01:27:19 10° ENE
SME Rocket 4.1 01:24:35 25° SW 01:25:49 30° W 01:30:08 10° NNW
Resurs 1-4 Rocket 2.3 01:23:26 10° N 01:28:38 62° WNW 01:31:56 22° SW
Cosmos 2074 Rocket 4.0 01:22:33 10° NNW 01:28:49 70° W 01:33:59 16° S
Cosmos 1943 Rocket 2.3 01:28:16 10° NW 01:33:51 58° WSW 01:39:22 10° S
Cosmos 2297 3.7 01:28:06 10° NNW 01:33:52 73° WSW 01:39:33 10° SSE
Cosmos 1703 3.8 01:35:52 16° S 01:38:51 56° E 01:42:43 10° NNE
CRYOSAT 2 4.4 01:38:47 18° S 01:42:20 64° W 01:47:13 10° N
Cosmos 2184 Rocket 4.2 01:37:32 10° NNW 01:43:40 56° W 01:48:45 15° SSW
Cosmos 2278 Rocket 3.9 01:41:30 10° WNW 01:44:15 14° W 01:45:23 13° WSW
ADEOS II 2.1 01:39:20 10° NNE 01:44:36 82° WNW 01:48:40 17° SSW
IDEFIX/ARIANE 42P 2.6 01:40:13 10° NNE 01:45:32 86° ESE 01:49:51 16° SSW
Cosmos 1610 Rocket 4.4 01:41:22 10° N 01:47:32 79° W 01:53:38 10° S
Cosmos 292 Rocket 3.8 01:48:10 18° SSW 01:51:48 82° ESE 01:56:37 10° NNE
USA 306 3.9 01:47:56 10° W 01:51:54 42° NNW 01:55:54 10° NE
Cosmos 2084 Rocket 4.1 01:49:15 16° WSW 01:51:56 40° NW 01:55:32 10° NNE
USA 307 3.9 01:51:21 10° W 01:55:22 43° NNW 01:59:24 10° NE
NPP 4.2 01:51:26 10° N 01:56:33 45° WNW 02:00:35 16° SW
ERBS 3.9 01:55:01 10° W 01:57:38 26° NNW 02:00:17 10° NE
Cosmos 2369 Rocket 2.2 01:53:33 10° NNW 01:59:11 89° WSW 02:04:47 10° SSE
SL-16 R/B 2.6 01:58:00 16° SW 02:02:25 53° WNW 02:07:59 10° NNE
IRS-1D 3.8 01:57:09 10° NNE 02:02:32 75° ESE 02:07:48 10° S
Cosmos 2228 3.0 01:58:12 10° NNW 02:02:35 77° W 02:06:54 10° S
Cosmos 614 Rocket 4.2 01:57:38 10° NNW 02:02:41 52° WSW 02:07:43 10° S
EO 1 Del DPAF 3.2 01:59:20 10° N 02:02:48 56° WNW 02:05:16 17° SSW
Cosmos 2251 Rocket 3.5 01:59:28 10° NNW 02:04:45 80° WSW 02:10:02 10° SSE
Meteor 1-28 Rocket 3.8 02:03:36 16° SSW 02:06:08 36° W 02:09:37 10° NNW
Cosmos 1656 Rocket 3.6 02:03:07 10° NNW 02:08:35 87° ENE 02:14:01 10° SSE
COSMOS 2455 2.9 02:04:48 15° SW 02:09:57 83° WNW 02:16:02 10° NNE
Cosmos 2058 Rocket 4.5 02:06:14 10° N 02:10:23 40° ENE 02:14:29 10° SE
Cosmos 1536 Rocket 4.2 02:08:02 15° SW 02:11:19 41° WNW 02:15:30 10° N
COSMOS 2441 4.4 02:12:57 10° N 02:17:51 78° WNW 02:22:40 10° SSW
Cosmos 1408 4.3 02:17:08 10° SSE 02:20:22 31° E 02:23:37 10° NNE
Nadezhda 1 Rocket 4.4 02:15:05 12° SSW 02:20:48 49° WNW 02:26:54 10° N
MSX 4.0 02:16:49 10° N 02:22:32 65° WNW 02:28:14 10° SSW
Cosmos 1455 4.0 02:23:16 10° NW 02:25:27 15° W 02:27:23 11° WSW
Cosmos 1603 4.0 02:20:18 10° SSW 02:25:51 65° ESE 02:31:29 10° NNE
USA 308 4.2 02:22:17 10° W 02:26:11 36° NNW 02:30:05 10° ENE
Cosmos 1271 Rocket 3.9 02:26:20 10° NW 02:29:30 25° W 02:32:42 10° SSW
Cosmos 1606 Rocket 3.7 02:29:25 10° NNW 02:33:44 54° W 02:38:00 10° S
ALOS 3.0 02:32:22 10° NNE 02:36:57 52° E 02:41:29 10° S
CZ-2D R/B 3.9 02:35:13 10° NNW 02:38:55 19° WNW 02:42:34 10° W
CZ-2C R/B 3.2 02:34:03 10° NNE 02:39:07 55° E 02:44:00 10° S
Lacrosse 5 2.7 02:38:48 10° W 02:43:43 45° NNW 02:48:37 10° NE
Helios 1B rocket 2.4 02:39:42 10° NNE 02:43:47 82° WNW 02:47:50 10° SSW
Cosmos 2366 rocket 4.0 02:39:50 10° NNW 02:46:00 78° W 02:52:11 10° S
Cosmos 2341 Rocket 4.3 02:40:15 10° NNW 02:46:28 55° W 02:52:40 10° SSW
USA 305 4.5 02:46:04 10° WNW 02:49:51 32° N 02:53:39 10° ENE
BREEZE-M DEB (TANK) 2.7 02:48:05 10° SW 02:52:10 47° SSE 02:54:20 10° E
SL-8 Rocket 4.2 02:47:02 10° NNW 02:53:13 59° W 02:59:24 10° S
